{"data":{"norad_id":68124,"intl_designator":"2026-044Z","name":"STARLINK-36938","alt_names":[],"object_type":"PAYLOAD","status":"ACTIVE","operator":null,"country":"US","launch_date":"2026-03-08","launch_site_code":"AFWTR","launch_vehicle":null,"mission":null,"orbit_class":"UNKNOWN","rcs_meters":null,"size_class":null,"mass_kg":null,"dimensions":null,"purposes":["comms"],"wikipedia_slug":null,"has_3d_model":false,"image_url":null,"decayed_at":null,"tle_current":{"epoch":"2026-09-20T04:19:56.865792Z","epoch_age_seconds":83139,"freshness":"FRESH","line1":"1 68124U 26044Z   26263.18051928  .00022556  00000+0  69850-3 0  9990","line2":"2 68124  97.2853 225.1093 0002317  92.6020 267.5488 15.33462141 31588","mean_motion":15.33462141,"eccentricity":0.0002317,"inclination_deg":97.2853,"raan_deg":225.1093,"arg_perigee_deg":92.602,"mean_anomaly_deg":267.5488,"bstar":0.0006985,"rev_number":3158,"period_min":93.905154975717,"perigee_km":463.90650651697,"apogee_km":467.07784427685,"semimajor_km":6843.6291753969,"source":"CELESTRAK","updated_at":"2026-09-20T09:00:43.790360Z"}}}